(140980) Blanton = 2000 LQ3 = 2001 VQ132

Discovered at Apache Point on 2001-11-12 by Sloan Digital Sky Survey.
(140980) Blanton = 2001 VQ132

Michael Blanton (b. 1973) is an American astronomer and a contributor to the Sloan Digital Sky Survey, best known for work on the galaxy-luminosity function. [Ref: Minor Planet Circ. 79105]

Orbit

Orbit type: Main Belt

Note: WebGL enabled browser required.

epoch2024-03-31.0
epoch JD2460400.5
perihelion date2020-10-11.72655
perihelion JD2459134.22655
argument of perihelion (°)179.89242
ascending node (°)114.70346
inclination (°)14.25637
eccentricity0.3026359
perihelion distance (AU)2.0405695
Tisserand w.r.t. Jupiter3.2
ΔV w.r.t. Earth (km/sec)10.0
semimajor axis (AU)2.9261178
mean anomaly (°)249.34097
mean daily motion (°/day)0.19690930
aphelion distance (AU)3.812
period (years)5.01
P-vector [x]0.41626780
P-vector [y]-0.83439710
P-vector [z]-0.36125143
Q-vector [x]0.88128811
Q-vector [y]0.46801842
Q-vector [z]-0.06549829
absolute magnitude15.31
phase slope0.15
uncertainty0
referenceMPEC 2024-E179
observations used754
oppositions19
arc length (days)8683
first opposition used2000
last opposition used2024
residual rms (arc-secs)0.71
perturbers coarse indicatorM-v
perturbers precise indicator003Ek
first observation date used2000-06-04.0
last observation date used2024-03-13.0
computer nameMPCLINUX
JD of orbit computation2456819.435022
perihelion JD uncertainty (days)7.3360E-05
argument of perihelion uncertainty (°)3.0571E-05
ascending node uncertainty (°)2.8847E-05
inclination uncertainty (°)6.1943E-06
eccentricity uncertainty 5.7679E-08
perihelion distance uncertainty (AU)1.7573E-07
Minimum Orbit Intersection Distances (in AU)
for orbit epoch: 2460400.5, reference: E2024-G02
Mercury1.59551
Venus1.31326
Earth1.02432
Mars0.62809
Jupiter1.41212
Saturn5.26487
Uranus14.8166
Neptune26.3017

Observations

771 total observations over interval: 2000 06 04.26936 – 2024 03 13.237568
These data are available for download (format description).

Date (UT) J2000 RA J2000 Dec Magn Location Ref
2000 06 04.26936 17 31 47.33 -07 05 36.9 18.7   704 – Lincoln Laboratory ETS, New Mexico MPS 16018
2000 06 04.28369 17 31 46.62 -07 05 40.9 19.2   704 – Lincoln Laboratory ETS, New Mexico MPS 16018
2000 06 04.29680 17 31 45.93 -07 05 44.4 19.3   704 – Lincoln Laboratory ETS, New Mexico MPS 16018
2000 06 04.31046 17 31 45.29 -07 05 48.4 18.7   704 – Lincoln Laboratory ETS, New Mexico MPS 16018
2000 06 04.32486 17 31 44.60 -07 05 52.6 18.5   704 – Lincoln Laboratory ETS, New Mexico MPS 16018
2000 06 06.30609 17 30 10.04 -07 15 58.5 18.1   704 – Lincoln Laboratory ETS, New Mexico MPS 16018
2000 06 06.33095 17 30 08.75 -07 16 06.7 17.6   704 – Lincoln Laboratory ETS, New Mexico MPS 16018
2000 06 06.34343 17 30 08.13 -07 16 11.2 16.7   704 – Lincoln Laboratory ETS, New Mexico MPS 16018
2001 11 12.33374 03 45 52.317 +00 54 54.36 20.01 V 645 – Apache Point-Sloan Digital Sky Survey MPS 127134
2001 11 12.333740 03 45 52.316 +00 54 54.37 20.00 V 645 – Apache Point-Sloan Digital Sky Survey MPS 127134
2001 11 12.337212 03 45 52.123 +00 54 54.07 20.90   645 – Apache Point-Sloan Digital Sky Survey MPS 127134
2001 11 21.319280 03 37 45.232 +00 47 07.95 20.05 V 645 – Apache Point-Sloan Digital Sky Survey MPS 127134
2001 11 21.322752 03 37 45.041 +00 47 07.91 21.05   645 – Apache Point-Sloan Digital Sky Survey MPS 127134
2001 12 07.23124 03 24 42.20 +01 03 29.4 20.3   704 – Lincoln Laboratory ETS, New Mexico MPS 133090
2001 12 07.24620 03 24 41.54 +01 03 31.7 20.2   704 – Lincoln Laboratory ETS, New Mexico MPS 133090
2001 12 07.26117 03 24 40.89 +01 03 34.5 20.3   704 – Lincoln Laboratory ETS, New Mexico MPS 133090
2001 12 07.27615 03 24 40.29 +01 03 35.5 20.0   704 – Lincoln Laboratory ETS, New Mexico MPS 133090
2004 02 17.42279 10 50 01.37 +20 54 34.4 20.5 V 691 – Steward Observatory, Kitt Peak-Spacewatch MPS 133090
2004 02 17.45082 10 50 00.09 +20 54 47.1 21.1 V 691 – Steward Observatory, Kitt Peak-Spacewatch MPS 133090
2004 02 17.47781 10 49 58.86 +20 54 59.3 20.8 V 691 – Steward Observatory, Kitt Peak-Spacewatch MPS 133090
2005 06 02.32784 17 10 56.42 -05 46 38.3 17.7 V 703 – Catalina Sky Survey MPS 135580
2005 06 02.33596 17 10 56.02 -05 46 40.5 17.2 V 703 – Catalina Sky Survey MPS 135580
2005 06 02.34407 17 10 55.52 -05 46 41.9 17.1 V 703 – Catalina Sky Survey MPS 135580
2005 06 03.58197 17 09 53.69 -05 51 40.1 18.4 R E12 – Siding Spring Survey MPS 135580
2005 06 03.59042 17 09 53.29 -05 51 42.0 18.1 R E12 – Siding Spring Survey MPS 135580
2005 06 03.59885 17 09 52.81 -05 51 44.2 18.2 R E12 – Siding Spring Survey MPS 135580
2005 06 03.60730 17 09 52.36 -05 51 46.5 17.8 R E12 – Siding Spring Survey MPS 135580
2005 06 09.27255 17 04 59.79 -06 19 38.9 18.1   704 – Lincoln Laboratory ETS, New Mexico MPS 135916
2005 06 09.28268 17 04 59.21 -06 19 42.4 18.5   704 – Lincoln Laboratory ETS, New Mexico MPS 135916
2005 06 09.29397 17 04 58.63 -06 19 45.7 18.2   704 – Lincoln Laboratory ETS, New Mexico MPS 135916
2005 06 09.30618 17 04 57.97 -06 19 49.3 18.4   704 – Lincoln Laboratory ETS, New Mexico MPS 135916
2005 06 09.31783 17 04 57.29 -06 19 53.7 18.5   704 – Lincoln Laboratory ETS, New Mexico MPS 135916
2005 06 09.38228 17 04 53.72 -06 20 14.8 17.3 V 703 – Catalina Sky Survey MPS 135916
2005 06 09.38819 17 04 53.32 -06 20 16.2 16.8 V 703 – Catalina Sky Survey MPS 135916
2005 06 09.39415 17 04 53.07 -06 20 18.0 16.8 V 703 – Catalina Sky Survey MPS 135916
2005 06 09.40010 17 04 52.82 -06 20 20.0 16.8 V 703 – Catalina Sky Survey MPS 135916
2005 06 13.54151 17 01 15.56 -06 45 23.1 19.4   608 – Haleakala-AMOS MPS 136491
2005 06 13.55231 17 01 14.96 -06 45 27.4 19.1   608 – Haleakala-AMOS MPS 136491
2005 06 13.56263 17 01 14.42 -06 45 31.1 18.9   608 – Haleakala-AMOS MPS 136491
2005 07 04.28611 16 45 52.74 -09 41 12.3 17.6 V 703 – Catalina Sky Survey MPS 137420
2005 07 04.29260 16 45 52.41 -09 41 16.5 17.3 V 703 – Catalina Sky Survey MPS 137420
2005 07 04.29907 16 45 52.20 -09 41 20.1 17.3 V 703 – Catalina Sky Survey MPS 137420
2005 07 04.30561 16 45 51.98 -09 41 23.6 17.3 V 703 – Catalina Sky Survey MPS 137420
2005 07 05.22741 16 45 23.26 -09 50 45.4 18.2   704 – Lincoln Laboratory ETS, New Mexico MPS 137420
2005 07 05.23795 16 45 22.92 -09 50 51.6 18.2   704 – Lincoln Laboratory ETS, New Mexico MPS 137420
2005 07 05.24850 16 45 22.56 -09 50 58.1 18.2   704 – Lincoln Laboratory ETS, New Mexico MPS 137420
2005 07 05.25904 16 45 22.21 -09 51 04.8 18.0   704 – Lincoln Laboratory ETS, New Mexico MPS 137420
2005 07 05.26955 16 45 21.86 -09 51 11.1 18.3   704 – Lincoln Laboratory ETS, New Mexico MPS 137420
2005 08 01.48256 16 43 08.14 -14 53 03.4 18.5 V E12 – Siding Spring Survey MPS 138861
2005 08 01.48941 16 43 08.29 -14 53 08.3 18.5 V E12 – Siding Spring Survey MPS 138861
2005 08 01.49623 16 43 08.43 -14 53 12.8 18.1 V E12 – Siding Spring Survey MPS 138861
2005 08 01.50307 16 43 08.58 -14 53 18.3 17.8 V E12 – Siding Spring Survey MPS 138861
2006 10 13.48609 03 55 22.31 +01 13 49.0 21.0   705 – Apache Point MPS 195311
2006 10 13.48692 03 55 22.28 +01 13 48.7 20.1 V 705 – Apache Point MPS 195311
2006 10 17.36777 03 53 11.65 +00 57 15.9 19.6 V 703 – Catalina Sky Survey MPS 182796
2006 10 17.37417 03 53 11.43 +00 57 14.9 19.3 V 703 – Catalina Sky Survey MPS 182796
2006 10 17.38058 03 53 11.11 +00 57 12.7 20.0 V 703 – Catalina Sky Survey MPS 182796
2006 10 17.38698 03 53 10.96 +00 57 11.9 19.1 V 703 – Catalina Sky Survey MPS 182796
2006 10 21.48762 03 50 32.42 +00 40 33.3 21.1   705 – Apache Point MPS 195311
2006 10 21.48845 03 50 32.39 +00 40 33.1 20.3 V 705 – Apache Point MPS 195311
2006 10 22.43947 03 49 53.00 +00 36 51.0 20.6   705 – Apache Point MPS 195311
2006 10 22.44030 03 49 52.96 +00 36 50.8 20.0 V 705 – Apache Point MPS 195311
2006 10 29.28715 03 44 42.97 +00 12 28.2 19.8 V 703 – Catalina Sky Survey MPS 185299
2006 10 29.28921 03 44 42.79 +00 12 27.0 19.3 V 703 – Catalina Sky Survey MPS 185299
2006 10 29.29345 03 44 42.61 +00 12 26.6 19.2 V 703 – Catalina Sky Survey MPS 185299
2006 10 29.29625 03 44 42.36 +00 12 27.3 19.0 V 703 – Catalina Sky Survey MPS 185299
2006 11 29.35340 03 17 46.32 -00 21 52.9 21.1   705 – Apache Point MPS 195311
2006 11 29.35424 03 17 46.29 -00 21 52.9 20.2 V 705 – Apache Point MPS 195311
2006 12 01.24212 03 16 18.26 -00 19 04.2 20.1 V G96 – Mt. Lemmon Survey MPS 190339
2006 12 01.24742 03 16 18.01 -00 19 03.3 20.0 V G96 – Mt. Lemmon Survey MPS 190339
2006 12 01.25274 03 16 17.76 -00 19 03.1 20.6 V G96 – Mt. Lemmon Survey MPS 190339
2006 12 01.25804 03 16 17.47 -00 19 01.3 19.7 V G96 – Mt. Lemmon Survey MPS 190339
2007 12 06.40419 07 30 25.70 +17 41 47.8 21.5 V 691 – Steward Observatory, Kitt Peak-Spacewatch MPS 230790
2007 12 06.42184 07 30 25.06 +17 41 49.8 20.8 V 691 – Steward Observatory, Kitt Peak-Spacewatch MPS 230790
2007 12 06.43948 07 30 24.51 +17 41 52.5 20.7 V 691 – Steward Observatory, Kitt Peak-Spacewatch MPS 230790
2009 01 30.35306 10 52 21.61 +19 09 32.5 20.1 V G96 – Mt. Lemmon Survey MPS 275787
2009 01 30.36542 10 52 21.21 +19 09 38.0 19.9 V G96 – Mt. Lemmon Survey MPS 275787
2009 01 30.37789 10 52 20.82 +19 09 43.8 20.0 V G96 – Mt. Lemmon Survey MPS 275787
2009 01 30.38772 10 52 20.46 +19 09 48.1 19.8 V G96 – Mt. Lemmon Survey MPS 275787
2009 01 31.36526 10 51 48.74 +19 17 08.5 19.9 V G96 – Mt. Lemmon Survey MPS 275787
2009 01 31.37082 10 51 48.49 +19 17 10.2 20.7 V G96 – Mt. Lemmon Survey MPS 275787
2009 01 31.37640 10 51 48.27 +19 17 12.4 21.0 V G96 – Mt. Lemmon Survey MPS 275787
2009 01 31.38200 10 51 48.09 +19 17 15.2 21.1 V G96 – Mt. Lemmon Survey MPS 275787
2009 02 13.41538 10 43 20.06 +20 56 40.8 19.9 V G96 – Mt. Lemmon Survey MPS 277382
2009 02 13.42267 10 43 19.81 +20 56 43.6 20.2 V G96 – Mt. Lemmon Survey MPS 277382
2009 02 13.43008 10 43 19.41 +20 56 46.8 20.2 V G96 – Mt. Lemmon Survey MPS 277382
2009 02 13.43743 10 43 19.12 +20 56 50.0 20.4 V G96 – Mt. Lemmon Survey MPS 277382
2009 02 20.33426 10 38 02.40 +21 47 59.7 20.6 V 703 – Catalina Sky Survey MPS 277382
